Location: *
(18.5200°S, 46.4500°E)
Time: 18:44:06
(UTC+00:00)

CZ-4C R/B - Pass Details

Date: 19 July 2019
Orbit: 658 x 1344 km, 63.4° (Epoch: 24 August)

Event Time Altitude Azimuth Distance (km) Brightness Sun altitude
Rises 14:47:14 0° 335° (NNW) 4,336 6.6 -3.5°
Reaches altitude 10° 14:50:07 10° 335° (NNW) 3,378 6.1 -4.2°
Maximum altitude 14:58:32 87° 245° (WSW) 1,316 3.3 -6.0°
Drops below altitude 10° 15:06:24 10° 156° (SSE) 3,166 4.8 -7.8°
Sets 15:09:02 0° 155° (SSE) 4,053 5.3 -8.4°
